Time,TemperatureF,DewpointF,PressureIn,WindDirection,WindDirectionDegrees,WindSpeedMPH,WindSpeedGustMPH,Humidity,HourlyPrecipIn,Conditions,Clouds,dailyrainin,SoftwareType,DateUTC
2013-01-28 00:02:00,19.7,7.3,30.43,NW,325,0.0,1.0,58,0.00,,,0.00,Wunderground v.1.15,2013-01-28 05:02:00,
2013-01-28 00:04:00,19.7,7.7,30.43,NW,325,0.0,1.0,59,0.00,,,0.00,Wunderground v.1.15,2013-01-28 05:04:00,
2013-01-28 00:08:00,19.4,7.4,30.43,NW,325,0.0,1.0,59,0.00,,,0.00,Wunderground v.1.15,2013-01-28 05:08:00,
2013-01-28 00:14:00,19.3,8.0,30.42,NW,326,0.0,1.0,61,0.00,,,0.00,Wunderground v.1.15,2013-01-28 05:14:00,
2013-01-28 00:20:00,19.0,7.7,30.42,NW,325,0.0,1.0,61,0.00,,,0.00,Wunderground v.1.15,2013-01-28 05:20:00,
2013-01-28 00:26:00,19.0,8.1,30.43,NW,325,0.0,1.0,62,0.00,,,0.00,Wunderground v.1.15,2013-01-28 05:26:00,
2013-01-28 00:32:00,18.8,7.9,30.42,NW,325,0.0,1.0,62,0.00,,,0.00,Wunderground v.1.15,2013-01-28 05:32:00,
2013-01-28 00:38:00,18.7,8.5,30.42,NW,325,0.0,1.0,64,0.00,,,0.00,Wunderground v.1.15,2013-01-28 05:38:00,
2013-01-28 00:44:00,18.5,8.3,30.43,NW,325,0.0,1.0,64,0.00,,,0.00,Wunderground v.1.15,2013-01-28 05:44:00,
2013-01-28 00:50:00,18.4,8.2,30.43,NW,325,0.0,1.0,64,0.00,,,0.00,Wunderground v.1.15,2013-01-28 05:50:00,
2013-01-28 00:56:00,18.4,8.2,30.43,NW,325,0.0,1.0,64,0.00,,,0.00,Wunderground v.1.15,2013-01-28 05:56:00,
2013-01-28 01:02:00,18.4,7.9,30.42,NW,325,0.0,1.0,63,0.00,,,0.00,Wunderground v.1.15,2013-01-28 06:02:00,
2013-01-28 01:08:00,18.4,8.6,30.42,NW,325,0.0,1.0,65,0.00,,,0.00,Wunderground v.1.15,2013-01-28 06:08:00,
2013-01-28 01:14:00,18.1,8.0,30.42,NW,325,0.0,1.0,64,0.00,,,0.00,Wunderground v.1.15,2013-01-28 06:14:00,
2013-01-28 01:20:00,18.1,8.0,30.43,NW,325,0.0,1.0,64,0.00,,,0.00,Wunderground v.1.15,2013-01-28 06:20:00,
2013-01-28 01:26:00,18.1,8.0,30.43,NW,325,0.0,1.0,64,0.00,,,0.00,Wunderground v.1.15,2013-01-28 06:26:00,
2013-01-28 01:32:00,18.0,8.2,30.43,NW,325,0.0,0.0,65,0.00,,,0.00,Wunderground v.1.15,2013-01-28 06:32:00,
2013-01-28 01:38:00,17.9,7.8,30.42,NW,325,0.0,0.0,64,0.00,,,0.00,Wunderground v.1.15,2013-01-28 06:38:00,
2013-01-28 01:44:00,17.9,7.8,30.43,NW,325,0.0,0.0,64,0.00,,,0.00,Wunderground v.1.15,2013-01-28 06:44:00,
2013-01-28 01:50:00,17.9,8.5,30.43,NW,325,0.0,0.0,66,0.00,,,0.00,Wunderground v.1.15,2013-01-28 06:50:00,
2013-01-28 01:56:00,17.8,7.7,30.42,NW,325,0.0,0.0,64,0.00,,,0.00,Wunderground v.1.15,2013-01-28 06:56:00,
2013-01-28 02:02:00,17.8,8.4,30.42,NW,326,0.0,0.0,66,0.00,,,0.00,Wunderground v.1.15,2013-01-28 07:02:00,
2013-01-28 02:08:00,17.9,9.1,30.42,NW,325,0.0,0.0,68,0.00,,,0.00,Wunderground v.1.15,2013-01-28 07:08:00,
2013-01-28 02:14:00,17.9,9.4,30.42,NW,325,0.0,0.0,69,0.00,,,0.00,Wunderground v.1.15,2013-01-28 07:14:00,
2013-01-28 02:20:00,18.0,9.2,30.42,NW,325,0.0,0.0,68,0.00,,,0.00,Wunderground v.1.15,2013-01-28 07:20:00,
2013-01-28 02:26:00,18.2,8.1,30.42,NW,325,0.0,0.0,64,0.00,,,0.00,Wunderground v.1.15,2013-01-28 07:26:00,
2013-01-28 02:32:00,18.7,9.2,30.41,NW,325,0.0,0.0,66,0.00,,,0.00,Wunderground v.1.15,2013-01-28 07:32:00,
2013-01-28 02:38:00,19.0,9.8,30.42,NW,325,0.0,0.0,67,0.00,,,0.00,Wunderground v.1.15,2013-01-28 07:38:00,
2013-01-28 02:44:00,19.0,9.5,30.42,NW,325,0.0,0.0,66,0.00,,,0.00,Wunderground v.1.15,2013-01-28 07:44:00,
2013-01-28 02:50:00,18.8,9.0,30.41,NW,325,0.0,0.0,65,0.00,,,0.00,Wunderground v.1.15,2013-01-28 07:50:00,
2013-01-28 02:56:00,18.8,8.3,30.41,NW,325,0.0,0.0,63,0.00,,,0.00,Wunderground v.1.15,2013-01-28 07:56:00,
2013-01-28 03:02:00,18.8,9.3,30.41,NW,325,0.0,0.0,66,0.00,,,0.00,Wunderground v.1.15,2013-01-28 08:02:00,
2013-01-28 03:08:00,18.8,9.0,30.40,NW,325,0.0,0.0,65,0.00,,,0.00,Wunderground v.1.15,2013-01-28 08:08:00,
2013-01-28 03:14:00,18.7,8.2,30.41,NW,325,0.0,0.0,63,0.00,,,0.00,Wunderground v.1.15,2013-01-28 08:14:00,
2013-01-28 03:20:00,18.7,8.5,30.40,NW,325,0.0,0.0,64,0.00,,,0.00,Wunderground v.1.15,2013-01-28 08:20:00,
2013-01-28 03:26:00,18.8,8.6,30.40,NW,325,0.0,1.0,64,0.00,,,0.00,Wunderground v.1.15,2013-01-28 08:26:00,
2013-01-28 03:32:00,18.9,8.7,30.40,NW,325,0.0,1.0,64,0.00,,,0.00,Wunderground v.1.15,2013-01-28 08:32:00,
2013-01-28 03:38:00,18.9,8.7,30.40,NW,325,0.0,1.0,64,0.00,,,0.00,Wunderground v.1.15,2013-01-28 08:38:00,
2013-01-28 03:44:00,18.9,9.4,30.40,NW,325,0.0,1.0,66,0.00,,,0.00,Wunderground v.1.15,2013-01-28 08:44:00,
2013-01-28 03:50:00,18.8,9.3,30.40,NW,325,0.0,1.0,66,0.00,,,0.00,Wunderground v.1.15,2013-01-28 08:50:00,
2013-01-28 03:56:00,18.8,9.3,30.39,NW,325,0.0,1.0,66,0.00,,,0.00,Wunderground v.1.15,2013-01-28 08:56:00,
2013-01-28 04:02:00,18.7,9.9,30.39,NW,325,0.0,0.0,68,0.00,,,0.00,Wunderground v.1.15,2013-01-28 09:02:00,
2013-01-28 04:08:00,18.6,9.8,30.39,NW,325,0.0,0.0,68,0.00,,,0.00,Wunderground v.1.15,2013-01-28 09:08:00,
2013-01-28 04:14:00,18.5,9.7,30.39,NW,325,0.0,0.0,68,0.00,,,0.00,Wunderground v.1.15,2013-01-28 09:14:00,
2013-01-28 04:20:00,18.4,9.9,30.39,NW,325,0.0,0.0,69,0.00,,,0.00,Wunderground v.1.15,2013-01-28 09:20:00,
2013-01-28 04:26:00,18.4,10.2,30.39,NW,325,0.0,0.0,70,0.00,,,0.00,Wunderground v.1.15,2013-01-28 09:26:00,
2013-01-28 04:32:00,18.3,10.1,30.39,NW,325,0.0,0.0,70,0.00,,,0.00,Wunderground v.1.15,2013-01-28 09:32:00,
2013-01-28 04:38:00,18.2,10.4,30.39,NW,325,0.0,0.0,71,0.00,,,0.00,Wunderground v.1.15,2013-01-28 09:38:00,
2013-01-28 04:44:00,18.2,10.4,30.39,NW,325,0.0,0.0,71,0.00,,,0.00,Wunderground v.1.15,2013-01-28 09:44:00,
2013-01-28 04:50:00,18.1,10.6,30.39,NW,325,0.0,0.0,72,0.00,,,0.00,Wunderground v.1.15,2013-01-28 09:50:00,
2013-01-28 04:56:00,18.0,10.5,30.39,NW,325,0.0,1.0,72,0.00,,,0.00,Wunderground v.1.15,2013-01-28 09:56:00,
2013-01-28 05:02:00,17.9,10.4,30.38,NW,325,0.0,1.0,72,0.00,,,0.00,Wunderground v.1.15,2013-01-28 10:02:00,
2013-01-28 05:08:00,17.8,10.6,30.38,NW,325,0.0,1.0,73,0.00,,,0.00,Wunderground v.1.15,2013-01-28 10:08:00,
2013-01-28 05:14:00,17.7,10.5,30.38,NW,325,0.0,1.0,73,0.00,,,0.00,Wunderground v.1.15,2013-01-28 10:14:00,
2013-01-28 05:20:00,17.7,9.9,30.38,NW,325,0.0,1.0,71,0.00,,,0.00,Wunderground v.1.15,2013-01-28 10:20:00,
2013-01-28 05:26:00,17.7,9.9,30.38,NW,325,0.0,1.0,71,0.00,,,0.00,Wunderground v.1.15,2013-01-28 10:26:00,
2013-01-28 05:32:00,17.8,10.0,30.38,NW,325,0.0,0.0,71,0.00,,,0.00,Wunderground v.1.15,2013-01-28 10:32:00,
2013-01-28 05:38:00,17.8,10.0,30.37,NW,325,0.0,0.0,71,0.00,,,0.00,Wunderground v.1.15,2013-01-28 10:38:00,
2013-01-28 05:44:00,17.9,10.4,30.38,NW,325,0.0,0.0,72,0.00,,,0.00,Wunderground v.1.15,2013-01-28 10:44:00,
2013-01-28 05:50:00,18.0,10.5,30.37,NW,325,0.0,0.0,72,0.00,,,0.00,Wunderground v.1.15,2013-01-28 10:50:00,
2013-01-28 05:56:00,18.2,10.4,30.38,NW,325,0.0,0.0,71,0.00,,,0.00,Wunderground v.1.15,2013-01-28 10:56:00,
2013-01-28 06:02:00,18.4,10.6,30.38,NW,325,0.0,0.0,71,0.00,,,0.00,Wunderground v.1.15,2013-01-28 11:02:00,
2013-01-28 06:08:00,18.6,11.1,30.38,NW,325,0.0,0.0,72,0.00,,,0.00,Wunderground v.1.15,2013-01-28 11:08:00,
2013-01-28 06:14:00,18.8,11.3,30.38,NNW,329,0.0,1.0,72,0.00,,,0.00,Wunderground v.1.15,2013-01-28 11:14:00,
2013-01-28 06:20:00,19.0,11.8,30.38,NNW,330,0.0,0.0,73,0.00,,,0.00,Wunderground v.1.15,2013-01-28 11:20:00,
2013-01-28 06:26:00,19.1,11.6,30.37,NNW,329,0.0,2.0,72,0.00,,,0.00,Wunderground v.1.15,2013-01-28 11:26:00,
2013-01-28 06:32:00,19.3,11.7,30.38,NNW,330,0.0,2.0,72,0.00,,,0.00,Wunderground v.1.15,2013-01-28 11:32:00,
2013-01-28 06:38:00,19.3,11.7,30.38,NNW,330,0.0,2.0,72,0.00,,,0.00,Wunderground v.1.15,2013-01-28 11:38:00,
2013-01-28 06:44:00,19.4,11.8,30.38,NNW,330,0.0,2.0,72,0.00,,,0.00,Wunderground v.1.15,2013-01-28 11:44:00,
2013-01-28 06:50:00,19.5,11.6,30.39,NNW,330,0.0,2.0,71,0.00,,,0.00,Wunderground v.1.15,2013-01-28 11:50:00,
2013-01-28 06:56:00,19.7,11.5,30.39,NNW,330,0.0,2.0,70,0.00,,,0.00,Wunderground v.1.15,2013-01-28 11:56:00,
2013-01-28 07:02:00,19.9,11.7,30.38,NNW,330,0.0,1.0,70,0.00,,,0.00,Wunderground v.1.15,2013-01-28 12:02:00,
2013-01-28 07:08:00,20.0,11.1,30.38,NNW,330,0.0,1.0,68,0.00,,,0.00,Wunderground v.1.15,2013-01-28 12:08:00,
2013-01-28 07:14:00,20.2,11.0,30.38,NNW,330,0.0,1.0,67,0.00,,,0.00,Wunderground v.1.15,2013-01-28 12:14:00,
2013-01-28 07:20:00,20.4,11.5,30.38,NNW,330,0.0,1.0,68,0.00,,,0.00,Wunderground v.1.15,2013-01-28 12:20:00,
2013-01-28 07:26:00,20.5,11.6,30.38,NNW,330,0.0,1.0,68,0.00,,,0.00,Wunderground v.1.15,2013-01-28 12:26:00,
2013-01-28 07:32:00,20.6,11.7,30.38,NNW,330,0.0,1.0,68,0.00,,,0.00,Wunderground v.1.15,2013-01-28 12:32:00,
2013-01-28 07:38:00,20.8,11.9,30.38,NNW,330,0.0,1.0,68,0.00,,,0.00,Wunderground v.1.15,2013-01-28 12:38:00,
2013-01-28 07:44:00,21.1,12.2,30.38,NNW,330,0.0,1.0,68,0.00,,,0.00,Wunderground v.1.15,2013-01-28 12:44:00,
2013-01-28 07:50:00,21.2,12.6,30.39,NNW,330,0.0,1.0,69,0.00,,,0.00,Wunderground v.1.15,2013-01-28 12:50:00,
2013-01-28 07:56:00,21.4,13.5,30.39,NNW,329,0.0,1.0,71,0.00,,,0.00,Wunderground v.1.15,2013-01-28 12:56:00,
2013-01-28 08:02:00,21.5,12.6,30.38,ENE,61,0.0,0.0,68,0.00,,,0.00,Wunderground v.1.15,2013-01-28 13:02:00,
2013-01-28 08:08:00,21.6,11.6,30.38,ENE,62,0.0,0.0,65,0.00,,,0.00,Wunderground v.1.15,2013-01-28 13:08:00,
2013-01-28 08:14:00,21.7,12.1,30.37,ENE,61,0.0,0.0,66,0.00,,,0.00,Wunderground v.1.15,2013-01-28 13:14:00,
2013-01-28 08:20:00,22.1,13.1,30.37,ENE,61,0.0,0.0,68,0.00,,,0.00,Wunderground v.1.15,2013-01-28 13:20:00,
2013-01-28 08:26:00,22.5,14.2,30.36,NE,39,0.0,2.0,70,0.00,,,0.00,Wunderground v.1.15,2013-01-28 13:26:00,
2013-01-28 08:32:00,22.7,14.4,30.36,NE,39,0.0,2.0,70,0.00,,,0.00,Wunderground v.1.15,2013-01-28 13:32:00,
2013-01-28 08:38:00,22.9,12.9,30.36,NE,39,0.0,2.0,65,0.00,,,0.00,Wunderground v.1.15,2013-01-28 13:38:00,
2013-01-28 08:44:00,23.0,14.0,30.36,NE,39,0.0,2.0,68,0.00,,,0.00,Wunderground v.1.15,2013-01-28 13:44:00,
2013-01-28 08:50:00,23.3,14.3,30.36,NE,39,0.0,2.0,68,0.00,,,0.00,Wunderground v.1.15,2013-01-28 13:50:00,
2013-01-28 08:56:00,23.5,14.1,30.36,NE,39,0.0,2.0,67,0.00,,,0.00,Wunderground v.1.15,2013-01-28 13:56:00,
2013-01-28 09:02:00,23.9,13.1,30.36,NE,39,0.0,1.0,63,0.00,,,0.00,Wunderground v.1.15,2013-01-28 14:02:00,
2013-01-28 09:08:00,24.1,11.0,30.36,NE,39,0.0,1.0,57,0.00,,,0.00,Wunderground v.1.15,2013-01-28 14:08:00,
2013-01-28 09:14:00,24.4,10.1,30.36,NE,39,0.0,1.0,54,0.00,,,0.00,Wunderground v.1.15,2013-01-28 14:14:00,
2013-01-28 09:20:00,24.7,9.5,30.35,NE,39,0.0,1.0,52,0.00,,,0.00,Wunderground v.1.15,2013-01-28 14:20:00,
2013-01-28 09:26:00,24.9,11.0,30.34,ESE,108,0.0,1.0,55,0.00,,,0.00,Wunderground v.1.15,2013-01-28 14:26:00,
2013-01-28 09:32:00,25.2,10.4,30.35,ESE,103,0.0,0.0,53,0.00,,,0.00,Wunderground v.1.15,2013-01-28 14:32:00,
2013-01-28 09:38:00,25.5,9.4,30.35,East,99,0.0,0.0,50,0.00,,,0.00,Wunderground v.1.15,2013-01-28 14:38:00,
2013-01-28 09:44:00,25.9,8.9,30.35,East,100,0.0,0.0,48,0.00,,,0.00,Wunderground v.1.15,2013-01-28 14:44:00,
2013-01-28 09:50:00,26.4,11.1,30.36,East,83,0.0,0.0,52,0.00,,,0.00,Wunderground v.1.15,2013-01-28 14:50:00,
2013-01-28 09:56:00,26.9,10.7,30.36,East,84,0.0,2.0,50,0.00,,,0.00,Wunderground v.1.15,2013-01-28 14:56:00,
2013-01-28 10:02:00,27.1,8.5,30.35,East,83,0.0,2.0,45,0.00,,,0.00,Wunderground v.1.15,2013-01-28 15:02:00,
2013-01-28 10:08:00,27.3,9.2,30.35,East,83,0.0,2.0,46,0.00,,,0.00,Wunderground v.1.15,2013-01-28 15:08:00,
2013-01-28 10:14:00,27.7,9.1,30.35,East,84,0.0,2.0,45,0.00,,,0.00,Wunderground v.1.15,2013-01-28 15:14:00,
2013-01-28 10:20:00,28.0,9.4,30.35,East,83,0.0,2.0,45,0.00,,,0.00,Wunderground v.1.15,2013-01-28 15:20:00,
2013-01-28 10:26:00,28.3,10.1,30.34,East,84,0.0,2.0,46,0.00,,,0.00,Wunderground v.1.15,2013-01-28 15:26:00,
2013-01-28 10:32:00,28.6,11.4,30.34,East,84,0.0,0.0,48,0.00,,,0.00,Wunderground v.1.15,2013-01-28 15:32:00,
2013-01-28 10:38:00,28.8,11.6,30.33,East,85,0.0,1.0,48,0.00,,,0.00,Wunderground v.1.15,2013-01-28 15:38:00,
2013-01-28 10:44:00,29.0,11.3,30.33,SSE,147,0.0,1.0,47,0.00,,,0.00,Wunderground v.1.15,2013-01-28 15:44:00,
2013-01-28 10:50:00,29.0,11.7,30.33,SW,223,0.0,0.0,48,0.00,,,0.00,Wunderground v.1.15,2013-01-28 15:50:00,
2013-01-28 10:56:00,29.3,12.5,30.34,SW,223,0.0,3.0,49,0.00,,,0.00,Wunderground v.1.15,2013-01-28 15:56:00,
2013-01-28 11:02:00,30.1,14.1,30.33,SW,223,0.0,3.0,51,0.00,,,0.00,Wunderground v.1.15,2013-01-28 16:02:00,
2013-01-28 11:08:00,30.7,15.1,30.32,WNW,288,0.0,3.0,52,0.00,,,0.00,Wunderground v.1.15,2013-01-28 16:08:00,
2013-01-28 11:14:00,31.1,15.9,30.32,West,273,1.0,3.0,53,0.00,,,0.00,Wunderground v.1.15,2013-01-28 16:14:00,
2013-01-28 11:20:00,31.4,17.5,30.31,West,268,1.0,3.0,56,0.00,,,0.00,Wunderground v.1.15,2013-01-28 16:20:00,
2013-01-28 11:26:00,31.3,17.8,30.30,WSW,238,2.0,4.0,57,0.00,,,0.00,Wunderground v.1.15,2013-01-28 16:26:00,
2013-01-28 11:32:00,31.6,20.1,30.29,WNW,297,2.0,5.0,62,0.00,,,0.00,Wunderground v.1.15,2013-01-28 16:32:00,
2013-01-28 11:38:00,31.8,22.1,30.29,NW,319,2.0,5.0,67,0.00,,,0.00,Wunderground v.1.15,2013-01-28 16:38:00,
2013-01-28 11:44:00,31.9,23.2,30.28,WNW,295,1.0,4.0,70,0.00,,,0.00,Wunderground v.1.15,2013-01-28 16:44:00,
2013-01-28 11:50:00,31.7,24.4,30.28,NW,305,1.0,4.0,74,0.00,,,0.00,Wunderground v.1.15,2013-01-28 16:50:00,
2013-01-28 11:56:00,31.2,25.1,30.28,West,266,2.0,7.0,78,0.00,,,0.00,Wunderground v.1.15,2013-01-28 16:56:00,
2013-01-28 12:02:00,30.6,25.2,30.27,NW,308,2.0,7.0,80,0.00,,,0.00,Wunderground v.1.15,2013-01-28 17:02:00,
2013-01-28 12:08:00,30.1,25.6,30.26,WSW,239,2.0,7.0,83,0.00,,,0.00,Wunderground v.1.15,2013-01-28 17:08:00,
2013-01-28 12:14:00,30.0,26.0,30.26,SW,224,1.0,7.0,85,0.00,,,0.00,Wunderground v.1.15,2013-01-28 17:14:00,
2013-01-28 12:20:00,30.0,26.3,30.27,NW,314,1.0,1.0,86,0.00,,,0.00,Wunderground v.1.15,2013-01-28 17:20:00,
2013-01-28 12:26:00,30.0,26.6,30.27,NW,318,1.0,9.0,87,0.00,,,0.00,Wunderground v.1.15,2013-01-28 17:26:00,
2013-01-28 12:32:00,30.0,26.9,30.26,SW,231,1.0,9.0,88,0.00,,,0.00,Wunderground v.1.15,2013-01-28 17:32:00,
2013-01-28 12:38:00,30.0,27.2,30.25,NNW,330,1.0,9.0,89,0.00,,,0.00,Wunderground v.1.15,2013-01-28 17:38:00,
2013-01-28 12:44:00,30.1,27.3,30.25,West,276,0.0,9.0,89,0.00,,,0.00,Wunderground v.1.15,2013-01-28 17:44:00,
2013-01-28 12:50:00,30.1,27.5,30.24,West,276,0.0,9.0,90,0.00,,,0.00,Wunderground v.1.15,2013-01-28 17:50:00,
2013-01-28 12:56:00,30.1,27.5,30.22,West,274,0.0,9.0,90,0.00,,,0.00,Wunderground v.1.15,2013-01-28 17:56:00,
2013-01-28 13:02:00,30.1,27.5,30.21,SSW,199,0.0,4.0,90,0.00,,,0.00,Wunderground v.1.15,2013-01-28 18:02:00,
2013-01-28 13:08:00,30.0,27.7,30.20,SW,216,1.0,4.0,91,0.00,,,0.00,Wunderground v.1.15,2013-01-28 18:08:00,
2013-01-28 13:14:00,30.0,27.7,30.20,SW,228,0.0,4.0,91,0.00,,,0.00,Wunderground v.1.15,2013-01-28 18:14:00,
2013-01-28 13:20:00,30.1,28.1,30.19,SW,228,0.0,4.0,92,0.00,,,0.00,Wunderground v.1.15,2013-01-28 18:20:00,
2013-01-28 13:26:00,30.1,28.1,30.18,SW,228,0.0,4.0,92,0.00,,,0.00,Wunderground v.1.15,2013-01-28 18:26:00,
2013-01-28 13:32:00,30.3,28.3,30.18,SSW,193,0.0,3.0,92,0.00,,,0.00,Wunderground v.1.15,2013-01-28 18:32:00,
2013-01-28 13:38:00,30.4,28.6,30.18,South,189,0.0,3.0,93,0.00,,,0.00,Wunderground v.1.15,2013-01-28 18:38:00,
2013-01-28 13:44:00,30.4,28.6,30.17,SW,222,0.0,3.0,93,0.00,,,0.00,Wunderground v.1.15,2013-01-28 18:44:00,
2013-01-28 13:50:00,30.5,28.7,30.17,SW,222,0.0,3.0,93,0.00,,,0.00,Wunderground v.1.15,2013-01-28 18:50:00,
2013-01-28 13:56:00,30.5,28.7,30.18,SW,222,0.0,3.0,93,0.00,,,0.00,Wunderground v.1.15,2013-01-28 18:56:00,
2013-01-28 14:02:00,30.5,28.7,30.17,SW,222,0.0,3.0,93,0.00,,,0.00,Wunderground v.1.15,2013-01-28 19:02:00,
2013-01-28 14:08:00,30.5,28.7,30.17,SW,226,0.0,3.0,93,0.00,,,0.00,Wunderground v.1.15,2013-01-28 19:08:00,
2013-01-28 14:14:00,30.6,28.8,30.16,SW,224,0.0,3.0,93,0.00,,,0.00,Wunderground v.1.15,2013-01-28 19:14:00,
2013-01-28 14:20:00,30.5,28.7,30.15,SW,220,1.0,1.0,93,0.00,,,0.00,Wunderground v.1.15,2013-01-28 19:20:00,
2013-01-28 14:26:00,30.5,28.7,30.15,SSW,204,1.0,4.0,93,0.00,,,0.00,Wunderground v.1.15,2013-01-28 19:26:00,
2013-01-28 14:32:00,30.5,28.7,30.14,SSW,199,1.0,4.0,93,0.00,,,0.00,Wunderground v.1.15,2013-01-28 19:32:00,
2013-01-28 14:38:00,30.6,28.8,30.14,South,188,0.0,4.0,93,0.00,,,0.00,Wunderground v.1.15,2013-01-28 19:38:00,
2013-01-28 14:44:00,30.6,29.1,30.14,SW,233,0.0,4.0,94,0.00,,,0.00,Wunderground v.1.15,2013-01-28 19:44:00,
2013-01-28 14:50:00,30.6,29.1,30.12,SSW,193,1.0,4.0,94,0.00,,,0.00,Wunderground v.1.15,2013-01-28 19:50:00,
2013-01-28 14:56:00,30.7,29.2,30.12,South,180,1.0,4.0,94,0.00,,,0.00,Wunderground v.1.15,2013-01-28 19:56:00,
2013-01-28 15:02:00,30.8,29.3,30.11,South,186,1.0,4.0,94,0.00,,,0.00,Wunderground v.1.15,2013-01-28 20:02:00,
2013-01-28 15:08:00,30.8,29.3,30.10,South,170,1.0,4.0,94,0.00,,,0.00,Wunderground v.1.15,2013-01-28 20:08:00,
2013-01-28 15:14:00,30.9,29.4,30.09,SW,220,2.0,4.0,94,0.00,,,0.00,Wunderground v.1.15,2013-01-28 20:14:00,
2013-01-28 15:20:00,30.9,29.4,30.09,SSW,195,1.0,4.0,94,0.00,,,0.00,Wunderground v.1.15,2013-01-28 20:20:00,
2013-01-28 15:26:00,30.9,29.4,30.09,SW,235,1.0,6.0,94,0.00,,,0.00,Wunderground v.1.15,2013-01-28 20:26:00,
2013-01-28 15:32:00,31.0,29.5,30.09,WSW,249,1.0,6.0,94,0.00,,,0.00,Wunderground v.1.15,2013-01-28 20:32:00,
2013-01-28 15:38:00,31.1,29.8,30.08,SW,234,1.0,6.0,95,0.00,,,0.00,Wunderground v.1.15,2013-01-28 20:38:00,
2013-01-28 15:44:00,31.2,29.9,30.08,WSW,240,1.0,6.0,95,0.00,,,0.00,Wunderground v.1.15,2013-01-28 20:44:00,
2013-01-28 15:50:00,31.5,30.2,30.07,South,191,2.0,2.0,95,0.00,,,0.00,Wunderground v.1.15,2013-01-28 20:50:00,
2013-01-28 15:56:00,31.8,30.5,30.07,West,266,1.0,7.0,95,0.00,,,0.00,Wunderground v.1.15,2013-01-28 20:56:00,
2013-01-28 16:02:00,31.9,30.6,30.08,WSW,248,1.0,7.0,95,0.00,,,0.00,Wunderground v.1.15,2013-01-28 21:02:00,
2013-01-28 16:08:00,32.1,30.8,30.08,WSW,258,0.0,7.0,95,0.00,,,0.00,Wunderground v.1.15,2013-01-28 21:08:00,
2013-01-28 16:14:00,32.3,31.0,30.06,WSW,247,0.0,7.0,95,0.00,,,0.00,Wunderground v.1.15,2013-01-28 21:14:00,
2013-01-28 16:20:00,32.4,31.1,30.06,SSW,195,0.0,7.0,95,0.00,,,0.00,Wunderground v.1.15,2013-01-28 21:20:00,
2013-01-28 16:26:00,32.5,31.2,30.06,NW,308,0.0,7.0,95,0.00,,,0.00,Wunderground v.1.15,2013-01-28 21:26:00,
2013-01-28 16:32:00,32.6,31.3,30.06,WSW,245,0.0,3.0,95,0.00,,,0.00,Wunderground v.1.15,2013-01-28 21:32:00,
2013-01-28 16:38:00,32.7,31.4,30.06,WSW,245,0.0,3.0,95,0.00,,,0.00,Wunderground v.1.15,2013-01-28 21:38:00,
2013-01-28 16:44:00,32.8,31.5,30.06,WSW,245,0.0,3.0,95,0.00,,,0.00,Wunderground v.1.15,2013-01-28 21:44:00,
2013-01-28 16:50:00,32.9,31.6,30.06,WSW,245,0.0,3.0,95,0.00,,,0.00,Wunderground v.1.15,2013-01-28 21:50:00,
2013-01-28 16:56:00,33.1,31.8,30.06,WSW,244,0.0,3.0,95,0.00,,,0.00,Wunderground v.1.15,2013-01-28 21:56:00,
2013-01-28 17:02:00,33.2,31.9,30.05,WSW,245,0.0,3.0,95,0.00,,,0.00,Wunderground v.1.15,2013-01-28 22:02:00,
2013-01-28 17:08:00,33.2,31.9,30.05,WSW,244,0.0,3.0,95,0.00,,,0.00,Wunderground v.1.15,2013-01-28 22:08:00,
2013-01-28 17:14:00,33.2,31.9,30.05,WSW,245,0.0,3.0,95,0.00,,,0.00,Wunderground v.1.15,2013-01-28 22:14:00,
2013-01-28 17:20:00,33.1,31.8,30.05,WSW,245,0.0,3.0,95,0.00,,,0.00,Wunderground v.1.15,2013-01-28 22:20:00,
2013-01-28 17:26:00,33.0,31.7,30.04,WSW,245,0.0,3.0,95,0.00,,,0.00,Wunderground v.1.15,2013-01-28 22:26:00,
2013-01-28 17:32:00,32.9,31.6,30.04,WSW,245,0.0,1.0,95,0.00,,,0.00,Wunderground v.1.15,2013-01-28 22:32:00,
2013-01-28 17:38:00,33.0,31.7,30.04,WSW,244,0.0,1.0,95,0.00,,,0.00,Wunderground v.1.15,2013-01-28 22:38:00,
2013-01-28 17:44:00,33.0,31.7,30.04,WSW,245,0.0,1.0,95,0.00,,,0.00,Wunderground v.1.15,2013-01-28 22:44:00,
2013-01-28 17:50:00,32.9,31.6,30.04,WSW,245,0.0,1.0,95,0.00,,,0.00,Wunderground v.1.15,2013-01-28 22:50:00,
2013-01-28 17:56:00,32.9,31.6,30.04,WSW,244,0.0,1.0,95,0.00,,,0.00,Wunderground v.1.15,2013-01-28 22:56:00,
2013-01-28 18:02:00,32.9,31.6,30.03,WSW,245,0.0,1.0,95,0.00,,,0.00,Wunderground v.1.15,2013-01-28 23:02:00,
2013-01-28 18:08:00,32.9,31.6,30.03,WSW,245,0.0,1.0,95,0.00,,,0.00,Wunderground v.1.15,2013-01-28 23:08:00,
2013-01-28 18:14:00,33.0,31.7,30.02,WSW,245,0.0,1.0,95,0.00,,,0.00,Wunderground v.1.15,2013-01-28 23:14:00,
2013-01-28 18:20:00,33.0,31.7,30.02,WSW,245,0.0,1.0,95,0.00,,,0.00,Wunderground v.1.15,2013-01-28 23:20:00,
2013-01-28 18:26:00,33.1,31.8,30.02,WSW,245,0.0,1.0,95,0.00,,,0.00,Wunderground v.1.15,2013-01-28 23:26:00,
2013-01-28 18:32:00,33.1,31.8,30.02,WSW,245,0.0,0.0,95,0.00,,,0.00,Wunderground v.1.15,2013-01-28 23:32:00,
2013-01-28 18:38:00,33.1,31.8,30.02,WSW,245,0.0,0.0,95,0.00,,,0.00,Wunderground v.1.15,2013-01-28 23:38:00,
2013-01-28 18:44:00,33.1,31.8,30.01,WSW,245,0.0,0.0,95,0.00,,,0.00,Wunderground v.1.15,2013-01-28 23:44:00,
2013-01-28 18:50:00,33.4,32.4,30.01,SW,230,0.0,0.0,96,0.00,,,0.00,Wunderground v.1.15,2013-01-28 23:50:00,
2013-01-28 18:56:00,33.4,32.4,30.00,SW,223,0.0,3.0,96,0.00,,,0.00,Wunderground v.1.15,2013-01-28 23:56:00,
2013-01-28 19:02:00,33.4,32.4,30.00,WSW,249,0.0,3.0,96,0.00,,,0.00,Wunderground v.1.15,2013-01-29 00:02:00,
2013-01-28 19:08:00,33.4,32.4,30.00,WSW,249,0.0,3.0,96,0.00,,,0.00,Wunderground v.1.15,2013-01-29 00:08:00,
2013-01-28 19:14:00,33.4,32.4,29.99,WSW,249,0.0,3.0,96,0.00,,,0.00,Wunderground v.1.15,2013-01-29 00:14:00,
2013-01-28 19:20:00,33.5,32.5,29.99,WSW,249,0.0,3.0,96,0.00,,,0.00,Wunderground v.1.15,2013-01-29 00:20:00,
2013-01-28 19:26:00,33.8,32.8,29.99,WNW,288,0.0,3.0,96,0.00,,,0.00,Wunderground v.1.15,2013-01-29 00:26:00,
2013-01-28 19:32:00,33.8,32.8,30.00,WNW,288,0.0,2.0,96,0.00,,,0.00,Wunderground v.1.15,2013-01-29 00:32:00,
2013-01-28 19:38:00,33.7,32.7,30.00,WNW,288,0.0,2.0,96,0.00,,,0.00,Wunderground v.1.15,2013-01-29 00:38:00,
2013-01-28 19:44:00,33.9,32.9,29.99,WNW,303,0.0,2.0,96,0.00,,,0.01,Wunderground v.1.15,2013-01-29 00:44:00,
2013-01-28 19:50:00,34.0,33.0,29.99,WNW,296,0.0,2.0,96,0.00,,,0.01,Wunderground v.1.15,2013-01-29 00:50:00,
2013-01-28 19:56:00,34.1,33.1,29.98,WNW,295,1.0,4.0,96,0.00,,,0.01,Wunderground v.1.15,2013-01-29 00:56:00,
2013-01-28 20:02:00,34.2,33.2,29.99,NW,320,0.0,4.0,96,0.04,,,0.02,Wunderground v.1.15,2013-01-29 01:02:00,
2013-01-28 20:08:00,34.4,33.4,29.99,NNW,327,1.0,4.0,96,0.04,,,0.02,Wunderground v.1.15,2013-01-29 01:08:00,
2013-01-28 20:14:00,34.5,33.5,29.99,NNW,329,1.0,4.0,96,0.04,,,0.02,Wunderground v.1.15,2013-01-29 01:14:00,
2013-01-28 20:20:00,34.5,33.5,29.99,North,4,1.0,1.0,96,0.04,,,0.03,Wunderground v.1.15,2013-01-29 01:20:00,
2013-01-28 20:26:00,34.6,33.6,29.99,NNW,345,1.0,8.0,96,0.04,,,0.03,Wunderground v.1.15,2013-01-29 01:26:00,
2013-01-28 20:32:00,34.6,33.3,29.99,WNW,301,1.0,8.0,95,0.04,,,0.03,Wunderground v.1.15,2013-01-29 01:32:00,
2013-01-28 20:38:00,34.6,33.3,29.98,NW,316,1.0,8.0,95,0.00,,,0.03,Wunderground v.1.15,2013-01-29 01:38:00,
2013-01-28 20:44:00,34.5,33.2,29.98,NW,314,1.0,8.0,95,0.00,,,0.03,Wunderground v.1.15,2013-01-29 01:44:00,
2013-01-28 20:50:00,34.5,33.2,29.98,NW,322,1.0,1.0,95,0.00,,,0.03,Wunderground v.1.15,2013-01-29 01:50:00,
2013-01-28 20:56:00,34.3,33.0,29.97,NW,325,0.0,5.0,95,0.00,,,0.04,Wunderground v.1.15,2013-01-29 01:56:00,
2013-01-28 21:02:00,34.3,33.0,29.97,NW,322,0.0,5.0,95,0.00,,,0.04,Wunderground v.1.15,2013-01-29 02:02:00,
2013-01-28 21:08:00,34.4,33.1,29.97,NW,322,0.0,5.0,95,0.00,,,0.04,Wunderground v.1.15,2013-01-29 02:08:00,
2013-01-28 21:14:00,34.3,33.0,29.97,NW,322,0.0,5.0,95,0.00,,,0.04,Wunderground v.1.15,2013-01-29 02:14:00,
2013-01-28 21:20:00,34.3,33.0,29.96,NW,322,0.0,5.0,95,0.00,,,0.04,Wunderground v.1.15,2013-01-29 02:20:00,
2013-01-28 21:26:00,34.2,32.9,29.96,NW,322,0.0,5.0,95,0.00,,,0.04,Wunderground v.1.15,2013-01-29 02:26:00,
2013-01-28 21:32:00,34.2,32.9,29.96,NW,322,0.0,3.0,95,0.00,,,0.04,Wunderground v.1.15,2013-01-29 02:32:00,
2013-01-28 21:38:00,34.1,32.8,29.96,NW,318,0.0,3.0,95,0.00,,,0.04,Wunderground v.1.15,2013-01-29 02:38:00,
2013-01-28 21:44:00,34.1,32.8,29.96,NNW,330,0.0,3.0,95,0.00,,,0.04,Wunderground v.1.15,2013-01-29 02:44:00,
2013-01-28 21:50:00,34.1,32.8,29.96,NNW,330,0.0,3.0,95,0.00,,,0.04,Wunderground v.1.15,2013-01-29 02:50:00,
2013-01-28 21:56:00,34.1,32.8,29.96,NW,307,0.0,3.0,95,0.00,,,0.04,Wunderground v.1.15,2013-01-29 02:56:00,
2013-01-28 22:02:00,34.1,32.8,29.96,NW,311,1.0,3.0,95,0.00,,,0.05,Wunderground v.1.15,2013-01-29 03:02:00,
2013-01-28 22:08:00,34.1,32.8,29.96,NNW,332,1.0,3.0,95,0.00,,,0.05,Wunderground v.1.15,2013-01-29 03:08:00,
2013-01-28 22:14:00,34.1,32.8,29.96,NW,316,1.0,3.0,95,0.00,,,0.05,Wunderground v.1.15,2013-01-29 03:14:00,
2013-01-28 22:20:00,34.1,32.8,29.96,NW,310,1.0,1.0,95,0.00,,,0.05,Wunderground v.1.15,2013-01-29 03:20:00,
2013-01-28 22:26:00,34.1,32.8,29.96,NNW,338,1.0,4.0,95,0.00,,,0.05,Wunderground v.1.15,2013-01-29 03:26:00,
2013-01-28 22:32:00,34.1,32.8,29.96,NW,325,1.0,4.0,95,0.00,,,0.05,Wunderground v.1.15,2013-01-29 03:32:00,
2013-01-28 22:38:00,34.1,32.8,29.96,NW,326,1.0,4.0,95,0.00,,,0.05,Wunderground v.1.15,2013-01-29 03:38:00,
2013-01-28 22:44:00,34.1,32.8,29.96,NW,325,0.0,4.0,95,0.00,,,0.05,Wunderground v.1.15,2013-01-29 03:44:00,
2013-01-28 22:50:00,34.1,32.8,29.96,NW,326,1.0,4.0,95,0.00,,,0.05,Wunderground v.1.15,2013-01-29 03:50:00,
2013-01-28 22:56:00,34.1,32.8,29.96,NW,326,1.0,4.0,95,0.00,,,0.05,Wunderground v.1.15,2013-01-29 03:56:00,
2013-01-28 23:02:00,34.1,32.8,29.95,NW,324,0.0,4.0,95,0.00,,,0.05,Wunderground v.1.15,2013-01-29 04:02:00,
2013-01-28 23:08:00,34.1,32.8,29.95,NNW,334,0.0,4.0,95,0.00,,,0.05,Wunderground v.1.15,2013-01-29 04:08:00,
2013-01-28 23:14:00,34.1,32.8,29.95,NNW,334,0.0,4.0,95,0.00,,,0.05,Wunderground v.1.15,2013-01-29 04:14:00,
2013-01-28 23:20:00,34.1,32.8,29.95,NNW,334,0.0,4.0,95,0.00,,,0.05,Wunderground v.1.15,2013-01-29 04:20:00,
2013-01-28 23:26:00,34.1,32.8,29.96,NNW,334,0.0,5.0,95,0.00,,,0.06,Wunderground v.1.15,2013-01-29 04:26:00,
2013-01-28 23:32:00,34.0,32.7,29.95,NNW,334,0.0,5.0,95,0.00,,,0.06,Wunderground v.1.15,2013-01-29 04:32:00,
2013-01-28 23:38:00,34.0,32.7,29.95,NNW,334,0.0,5.0,95,0.00,,,0.06,Wunderground v.1.15,2013-01-29 04:38:00,
2013-01-28 23:44:00,34.1,32.8,29.95,NNW,334,0.0,5.0,95,0.00,,,0.06,Wunderground v.1.15,2013-01-29 04:44:00,
2013-01-28 23:50:00,34.0,32.7,29.95,NNW,334,0.0,5.0,95,0.00,,,0.06,Wunderground v.1.15,2013-01-29 04:50:00,
2013-01-28 23:56:00,34.1,32.8,29.95,NW,322,0.0,5.0,95,0.00,,,0.06,Wunderground v.1.15,2013-01-29 04:56:00,